| time (UTC) | temp C | wind direction | speed KPH | gust KPH | rain 1hr cm | rain 24hr cm | rain mn cm | humidity % | barometer mb |
| 20260901094515 | 11 | 171 | 0.0 | 0.0 | 0.00 | 0.03 | 0.00 | 78 | 1007.2 |
| 20260901093100 | 11 | 171 | 0.0 | 0.0 | 0.00 | 0.03 | 0.00 | 78 | 1007.2 |
| 20260901091615 | 11 | 171 | 0.0 | 0.0 | 0.00 | 0.03 | 0.00 | 77 | 1007.3 |
| 20260901090124 | 11 | 170 | 0.0 | 0.0 | 0.00 | 0.03 | 0.00 | 79 | 1007.2 |
| 20260901084608 | 11 | 179 | 0.0 | 0.0 | 0.00 | 0.03 | 0.00 | 79 | 1007.4 |
| 20260901083107 | 11 | 179 | 0.0 | 0.0 | 0.00 | 0.03 | 0.00 | 79 | 1007.3 |
| 20260901081558 | 11 | 179 | 0.0 | 0.0 | 0.00 | 0.03 | 0.00 | 79 | 1007.6 |
| 20260901080107 | 11 | 179 | 0.0 | 0.0 | 0.00 | 0.03 | 0.00 | 79 | 1007.8 |
| 20260901074605 | 11 | 179 | 0.0 | 0.0 | 0.00 | 0.03 | 0.00 | 78 | 1007.8 |
| 20260901073032 | 12 | 179 | 0.0 | 0.0 | 0.00 | 0.03 | 0.00 | 76 | 1008.1 |
| 20260901071539 | 12 | 179 | 0.0 | 0.0 | 0.00 | 0.03 | 0.00 | 75 | 1008.0 |
| 20260901070050 | 12 | 181 | 0.0 | 9.7 | 0.00 | 0.03 | 0.00 | 75 | 1008.0 |
| 20260901064530 | 12 | 167 | 0.0 | 4.8 | 0.00 | 0.03 | 0.00 | 77 | 1008.2 |
| 20260901063047 | 11 | 178 | 0.0 | 0.0 | 0.00 | 0.03 | 0.00 | 78 | 1008.1 |
| 20260901061541 | 11 | 178 | 0.0 | 0.0 | 0.00 | 0.03 | 0.00 | 79 | 1008.2 |
| 20260901060052 | 11 | 178 | 0.0 | 0.0 | 0.00 | 0.03 | 0.00 | 79 | 1008.3 |
| 20260901054539 | 12 | 178 | 0.0 | 6.4 | 0.00 | 0.03 | 0.03 | 74 | 1008.4 |
| 20260901053058 | 12 | 153 | 1.6 | 6.4 | 0.00 | 0.03 | 0.03 | 73 | 1008.0 |
| 20260901051551 | 12 | 169 | 1.6 | 16.1 | 0.00 | 0.03 | 0.03 | 73 | 1008.4 |
| 20260901050052 | 12 | 155 | 0.0 | 17.7 | 0.00 | 0.03 | 0.03 | 73 | 1008.5 |
| 20260901044603 | 12 | 146 | 0.0 | 6.4 | 0.00 | 0.10 | 0.03 | 74 | 1008.3 |
| 20260901043040 | 11 | 193 | 3.2 | 12.9 | 0.00 | 0.10 | 0.03 | 77 | 1008.2 |
| 20260901041535 | 11 | 168 | 0.0 | 1.6 | 0.00 | 0.10 | 0.03 | 83 | 1008.4 |
| 20260901040046 | 10 | 150 | 0.0 | 0.0 | 0.00 | 0.10 | 0.03 | 84 | 1008.2 |
| 20260901034549 | 11 | 150 | 0.0 | 3.2 | 0.00 | 0.36 | 0.03 | 82 | 1008.2 |
| 20260901033049 | 11 | 153 | 1.6 | 8.0 | 0.00 | 0.36 | 0.03 | 82 | 1008.4 |
| 20260901031556 | 11 | 113 | 0.0 | 6.4 | 0.00 | 0.36 | 0.03 | 84 | 1008.6 |
| 20260901030059 | 11 | 120 | 0.0 | 0.0 | 0.00 | 0.36 | 0.03 | 85 | 1009.0 |
| 20260901024611 | 11 | 120 | 0.0 | 4.8 | 0.00 | 0.36 | 0.03 | 85 | 1008.7 |
| 20260901023003 | 11 | 128 | 0.0 | 6.4 | 0.00 | 0.36 | 0.03 | 86 | 1008.8 |
| 20260901021513 | 11 | 88 | 0.0 | 0.0 | 0.03 | 0.36 | 0.03 | 86 | 1008.6 |
| 20260901020101 | 11 | 101 | 0.0 | 0.0 | 0.03 | 0.36 | 0.03 | 86 | 1009.0 |
| 20260901014609 | 11 | 144 | 0.0 | 0.0 | 0.03 | 0.36 | 0.03 | 84 | 1008.7 |
| 20260901013027 | 12 | 144 | 0.0 | 0.0 | 0.00 | 0.33 | 0.03 | 81 | 1009.5 |
| 20260901011511 | 14 | 295 | 0.0 | 14.5 | 0.00 | 0.33 | 0.00 | 67 | 1009.2 |
| 20260901010003 | 16 | 221 | 0.0 | 0.0 | 0.00 | 0.33 | 0.00 | 55 | 1008.2 |
| 20260901004516 | 17 | 148 | 0.0 | 9.7 | 0.00 | 0.33 | 0.00 | 53 | 1007.6 |
| 20260901003125 | 17 | 148 | 0.0 | 14.5 | 0.00 | 0.33 | 0.00 | 50 | 1007.3 |
| 20260901001605 | 17 | 138 | 0.0 | 0.0 | 0.00 | 0.33 | 0.00 | 50 | 1007.3 |
| 20260901000003 | 17 | 114 | 0.0 | 0.0 | 0.00 | 0.33 | 0.00 | 49 | 1007.4 |
| 20260831234508 | 17 | 152 | 0.0 | 0.0 | 0.00 | 0.33 | 0.00 | 47 | 1007.7 |
| 20260831233147 | 17 | 113 | 0.0 | 9.7 | 0.00 | 0.33 | 0.00 | 45 | 1007.7 |
| 20260831231526 | 18 | 153 | 0.0 | 0.0 | 0.00 | 0.33 | 0.00 | 45 | 1007.7 |
| 20260831230002 | 18 | 140 | 0.0 | 0.0 | 0.00 | 0.33 | 0.00 | 45 | 1007.8 |
| 20260831224505 | 18 | 155 | 0.0 | 1.6 | 0.00 | 0.33 | 0.00 | 43 | 1007.9 |
| 20260831223002 | 18 | 172 | 0.0 | 16.1 | 0.00 | 0.33 | 0.00 | 44 | 1008.1 |
| 20260831221516 | 18 | 146 | 0.0 | 8.0 | 0.00 | 0.33 | 0.00 | 46 | 1008.4 |
| 20260831220015 | 18 | 157 | 0.0 | 0.0 | 0.00 | 0.33 | 0.00 | 47 | 1008.8 |
| 20260831214551 | 18 | 170 | 0.0 | 6.4 | 0.00 | 0.33 | 0.00 | 44 | 1008.9 |
| 20260831213050 | 18 | 167 | 0.0 | 6.4 | 0.00 | 0.33 | 0.00 | 44 | 1009.0 |
| 20260831211505 | 19 | 168 | 6.4 | 14.5 | 0.00 | 0.33 | 0.00 | 42 | 1009.0 |
| 20260831210026 | 19 | 140 | 0.0 | 1.6 | 0.00 | 0.33 | 0.00 | 42 | 1009.0 |
| 20260831204504 | 18 | 276 | 0.0 | 0.0 | 0.00 | 0.33 | 0.00 | 43 | 1009.3 |
| 20260831203030 | 18 | 121 | 1.6 | 9.7 | 0.00 | 0.33 | 0.00 | 41 | 1009.7 |
| 20260831201534 | 18 | 148 | 3.2 | 6.4 | 0.00 | 0.33 | 0.00 | 42 | 1009.7 |
| 20260831200042 | 18 | 272 | 0.0 | 0.0 | 0.00 | 0.33 | 0.00 | 44 | 1010.0 |
| 20260831194526 | 17 | 272 | 0.0 | 6.4 | 0.00 | 0.33 | 0.00 | 43 | 1010.1 |
| 20260831193051 | 17 | 346 | 0.0 | 9.7 | 0.00 | 0.33 | 0.00 | 46 | 1010.1 |
| 20260831191524 | 17 | 179 | 0.0 | 0.0 | 0.00 | 0.33 | 0.00 | 52 | 1010.1 |
| 20260831190052 | 17 | 178 | 0.0 | 0.0 | 0.00 | 0.33 | 0.00 | 43 | 1010.4 |
| 20260831184556 | 17 | 178 | 0.0 | 0.0 | 0.00 | 0.33 | 0.00 | 47 | 1010.7 |
| 20260831183057 | 17 | 244 | 0.0 | 0.0 | 0.00 | 0.33 | 0.00 | 48 | 1010.9 |
| 20260831181554 | 16 | 230 | 0.0 | 0.0 | 0.00 | 0.33 | 0.00 | 52 | 1011.1 |
| 20260831180010 | 16 | 171 | 0.0 | 0.0 | 0.00 | 0.33 | 0.00 | 53 | 1011.3 |
| 20260831174527 | 16 | 173 | 0.0 | 0.0 | 0.00 | 0.33 | 0.00 | 53 | 1011.2 |
| 20260831173038 | 17 | 255 | 0.0 | 0.0 | 0.00 | 0.33 | 0.00 | 50 | 1011.1 |
| 20260831171552 | 16 | 151 | 1.6 | 8.0 | 0.00 | 0.33 | 0.00 | 49 | 1010.8 |
| 20260831170052 | 16 | 205 | 0.0 | 11.3 | 0.00 | 0.33 | 0.00 | 56 | 1011.0 |
| 20260831164526 | 15 | 181 | 0.0 | 4.8 | 0.00 | 0.33 | 0.00 | 58 | 1010.9 |
| 20260831163006 | 15 | 144 | 0.0 | 3.2 | 0.00 | 0.33 | 0.00 | 63 | 1010.9 |
| 20260831161522 | 15 | 68 | 0.0 | 0.0 | 0.00 | 0.33 | 0.00 | 62 | 1010.7 |
| 20260831160002 | 15 | 68 | 0.0 | 0.0 | 0.00 | 0.33 | 0.00 | 66 | 1010.6 |
| 20260831154503 | 14 | 68 | 0.0 | 0.0 | 0.00 | 0.33 | 0.00 | 65 | 1010.3 |
| 20260831153056 | 13 | 68 | 0.0 | 0.0 | 0.00 | 0.33 | 0.00 | 64 | 1010.3 |
| 20260831151552 | 13 | 68 | 0.0 | 0.0 | 0.00 | 0.33 | 0.00 | 70 | 1010.2 |
| 20260831150104 | 12 | 68 | 0.0 | 3.2 | 0.00 | 0.33 | 0.00 | 70 | 1010.2 |
| 20260831144606 | 11 | 68 | 1.6 | 4.8 | 0.00 | 0.33 | 0.00 | 72 | 1010.2 |
| 20260831143100 | 11 | 115 | 0.0 | 0.0 | 0.00 | 0.33 | 0.00 | 76 | 1010.3 |
| 20260831141605 | 10 | 116 | 0.0 | 0.0 | 0.00 | 0.33 | 0.00 | 77 | 1010.1 |
| 20260831140002 | 10 | 116 | 0.0 | 0.0 | 0.00 | 0.33 | 0.00 | 78 | 1010.2 |
| 20260831134506 | 10 | 116 | 0.0 | 0.0 | 0.00 | 0.33 | 0.00 | 78 | 1010.0 |
| 20260831133034 | 9 | 116 | 0.0 | 0.0 | 0.00 | 0.33 | 0.00 | 78 | 1010.0 |
| 20260831131554 | 8 | 116 | 0.0 | 0.0 | 0.00 | 0.33 | 0.00 | 79 | 1009.8 |
| 20260831130047 | 8 | 116 | 0.0 | 0.0 | 0.00 | 0.33 | 0.00 | 79 | 1009.4 |
| 20260831124546 | 8 | 116 | 0.0 | 0.0 | 0.00 | 0.33 | 0.00 | 78 | 1009.2 |
| 20260831123053 | 8 | 116 | 0.0 | 0.0 | 0.00 | 0.33 | 0.00 | 79 | 1009.1 |
| 20260831121607 | 8 | 116 | 0.0 | 0.0 | 0.00 | 0.33 | 0.00 | 77 | 1008.8 |
| 20260831120130 | 9 | 116 | 0.0 | 0.0 | 0.00 | 0.33 | 0.00 | 76 | 1008.9 |
| 20260831114611 | 9 | 116 | 0.0 | 0.0 | 0.00 | 0.33 | 0.00 | 75 | 1008.8 |
| 20260831113003 | 8 | 116 | 3.2 | 6.4 | 0.00 | 0.33 | 0.00 | 78 | 1008.9 |
| 20260831111509 | 8 | 138 | 0.0 | 0.0 | 0.00 | 0.33 | 0.00 | 79 | 1008.8 |
| 20260831110151 | 9 | 138 | 0.0 | 0.0 | 0.00 | 0.33 | 0.00 | 78 | 1008.9 |
| 20260831104606 | 8 | 138 | 0.0 | 0.0 | 0.00 | 0.33 | 0.00 | 80 | 1008.8 |
| 20260831103129 | 8 | 138 | 0.0 | 0.0 | 0.00 | 0.33 | 0.00 | 80 | 1008.8 |
| 20260831101554 | 8 | 138 | 0.0 | 0.0 | 0.00 | 0.33 | 0.00 | 80 | 1008.6 |
| 20260831100052 | 8 | 138 | 0.0 | 0.0 | 0.00 | 0.33 | 0.00 | 80 | 1008.3 |